• In Deutschland
  • Länderverzeichnis
  • Für 7 Tage
  • Wassertemperatur
  • Satellitenkarten
  • Wetterkarte
  • Widgets
  • user-avatar
    Anmelden

    Stündliche Wetter Stuhr

    Heute, 20 Juli, Freitag

    Zeit Temperatur Niederschläge Wind Luftdruck Luftfeuchtigkeit
    00:00 +15°C° 0 mm 2 m/S 762 mmHg 77%
    01:00 +15°C° 0 mm 2 m/S 762 mmHg 78%
    02:00 +14°C° 0 mm 2 m/S 762 mmHg 79%
    03:00 +14°C° 0 mm 2 m/S 762 mmHg 79%
    04:00 +14°C° 0 mm 2 m/S 762 mmHg 80%
    05:00 +15°C° 0 mm 2 m/S 762 mmHg 76%
    06:00 +16°C° 0 mm 2 m/S 762 mmHg 72%
    07:00 +17°C° 0 mm 2 m/S 762 mmHg 68%
    08:00 +19°C° 0 mm 2 m/S 761 mmHg 62%
    09:00 +21°C° 0 mm 2 m/S 761 mmHg 57%
    10:00 +24°C° 0 mm 2 m/S 761 mmHg 52%
    11:00 +25°C° 0 mm 2 m/S 761 mmHg 49%
    12:00 +26°C° 0 mm 2 m/S 761 mmHg 47%
    13:00 +28°C° 0 mm 2 m/S 760 mmHg 44%
    14:00 +28°C° 0 mm 2 m/S 760 mmHg 44%
    15:00 +28°C° 0 mm 2 m/S 760 mmHg 44%
    16:00 +28°C° 0 mm 2 m/S 759 mmHg 44%
    17:00 +27°C° 0 mm 2 m/S 759 mmHg 49%
    18:00 +26°C° 0 mm 2 m/S 759 mmHg 53%
    19:00 +25°C° 0 mm 3 m/S 759 mmHg 57%
    20:00 +24°C° 0 mm 3 m/S 759 mmHg 58%
    21:00 +21°C° 0 mm 3 m/S 759 mmHg 60%
    22:00 +20°C° 0 mm 3 m/S 759 mmHg 61%
    23:00 +20°C° 0 mm 3 m/S 759 mmHg 61%

    Morgen, 21 Juli, Samstag

    Zeit Temperatur Niederschläge Wind Luftdruck Luftfeuchtigkeit
    00:00 +19°C° 0 mm 3 m/S 759 mmHg 62%
    01:00 +19°C° 0 mm 3 m/S 759 mmHg 62%
    02:00 +18°C° 0 mm 3 m/S 759 mmHg 64%
    03:00 +18°C° 0 mm 3 m/S 759 mmHg 65%
    04:00 +18°C° 0 mm 3 m/S 758 mmHg 67%
    05:00 +18°C° 0 mm 3 m/S 758 mmHg 67%
    06:00 +19°C° 0 mm 3 m/S 758 mmHg 67%
    07:00 +20°C° 0 mm 3 m/S 758 mmHg 67%
    08:00 +22°C° 0 mm 3 m/S 758 mmHg 62%
    09:00 +25°C° 0 mm 3 m/S 758 mmHg 56%
    10:00 +27°C° 0 mm 3 m/S 758 mmHg 51%
    11:00 +28°C° 0 mm 2 m/S 758 mmHg 47%
    12:00 +29°C° 0 mm 2 m/S 758 mmHg 43%
    13:00 +30°C° 0 mm 2 m/S 758 mmHg 39%
    14:00 +30°C° 0 mm 2 m/S 758 mmHg 40%
    15:00 +30°C° 0 mm 2 m/S 758 mmHg 41%
    16:00 +30°C° 0 mm 2 m/S 758 mmHg 42%
    17:00 +29°C° 0 mm 2 m/S 758 mmHg 46%
    18:00 +28°C° 0 mm 2 m/S 758 mmHg 50%
    19:00 +28°C° 0 mm 2 m/S 758 mmHg 54%
    20:00 +26°C° 0 mm 2 m/S 758 mmHg 58%
    21:00 +24°C° 0 mm 2 m/S 758 mmHg 62%
    22:00 +21°C° 0 mm 2 m/S 758 mmHg 66%
    23:00 +20°C° 0,1 mm 2 m/S 758 mmHg 69%

    übermorgen, 22 Juli, Sonntag

    Zeit Temperatur Niederschläge Wind Luftdruck Luftfeuchtigkeit
    00:00 +19°C° 0,1 mm 2 m/S 758 mmHg 71%
    01:00 +20°C° 0,1 mm 1 m/S 758 mmHg 73%
    02:00 +19°C° 0,1 mm 1 m/S 758 mmHg 75%
    03:00 +19°C° 0,1 mm 1 m/S 758 mmHg 76%
    04:00 +19°C° 0,1 mm 1 m/S 758 mmHg 77%
    05:00 +20°C° 0,2 mm 1 m/S 758 mmHg 75%
    06:00 +21°C° 0,2 mm 1 m/S 758 mmHg 74%
    07:00 +22°C° 0,2 mm 1 m/S 759 mmHg 72%
    08:00 +23°C° 0 mm 1 m/S 759 mmHg 67%
    09:00 +25°C° 0 mm 2 m/S 759 mmHg 62%
    10:00 +27°C° 0 mm 2 m/S 759 mmHg 57%
    11:00 +27°C° 0,3 mm 2 m/S 759 mmHg 55%
    12:00 +28°C° 0,3 mm 3 m/S 759 mmHg 53%
    13:00 +28°C° 0,3 mm 3 m/S 759 mmHg 50%
    14:00 +28°C° 0 mm 4 m/S 759 mmHg 50%
    15:00 +28°C° 0 mm 4 m/S 759 mmHg 50%
    16:00 +28°C° 0 mm 5 m/S 759 mmHg 50%
    17:00 +26°C° 0 mm 4 m/S 759 mmHg 54%
    18:00 +25°C° 0 mm 4 m/S 759 mmHg 58%
    19:00 +22°C° 0 mm 4 m/S 759 mmHg 63%
    20:00 +20°C° 0 mm 4 m/S 760 mmHg 71%
    21:00 +19°C° 0 mm 3 m/S 760 mmHg 79%
    22:00 +17°C° 0 mm 2 m/S 760 mmHg 88%
    23:00 +16°C° 0 mm 2 m/S 761 mmHg 90%

    23 Juli, Montag

    Zeit Temperatur Niederschläge Wind Luftdruck Luftfeuchtigkeit
    00:00 +16°C° 0 mm 2 m/S 761 mmHg 92%
    01:00 +15°C° 0 mm 2 m/S 761 mmHg 94%
    02:00 +15°C° 0 mm 2 m/S 761 mmHg 95%
    03:00 +15°C° 0 mm 2 m/S 761 mmHg 95%
    04:00 +15°C° 0 mm 2 m/S 761 mmHg 96%
    05:00 +16°C° 0 mm 2 m/S 761 mmHg 92%
    06:00 +17°C° 0 mm 2 m/S 761 mmHg 88%
    07:00 +18°C° 0 mm 2 m/S 761 mmHg 84%
    08:00 +20°C° 0 mm 2 m/S 761 mmHg 77%
    09:00 +21°C° 0 mm 2 m/S 761 mmHg 70%
    10:00 +24°C° 0 mm 3 m/S 761 mmHg 63%
    11:00 +25°C° 0 mm 3 m/S 761 mmHg 61%
    12:00 +25°C° 0 mm 3 m/S 761 mmHg 59%
    13:00 +26°C° 0 mm 3 m/S 761 mmHg 57%
    14:00 +27°C° 0 mm 3 m/S 761 mmHg 57%
    15:00 +27°C° 0 mm 3 m/S 761 mmHg 57%
    16:00 +27°C° 0 mm 3 m/S 760 mmHg 58%
    17:00 +26°C° 0 mm 3 m/S 760 mmHg 61%
    18:00 +25°C° 0 mm 3 m/S 760 mmHg 65%
    19:00 +25°C° 0 mm 3 m/S 760 mmHg 69%
    20:00 +23°C° 0 mm 2 m/S 761 mmHg 76%
    21:00 +20°C° 0 mm 2 m/S 761 mmHg 83%
    22:00 +18°C° 0 mm 2 m/S 761 mmHg 90%
    23:00 +19°C° 0 mm 1 m/S 761 mmHg 91%

    24 Juli, Dienstag

    Zeit Temperatur Niederschläge Wind Luftdruck Luftfeuchtigkeit
    00:00 +18°C° 0 mm 1 m/S 761 mmHg 92%
    01:00 +18°C° 0 mm 1 m/S 761 mmHg 92%
    02:00 +18°C° 0 mm 1 m/S 760 mmHg 92%
    03:00 +16°C° 0 mm 1 m/S 760 mmHg 92%
    04:00 +16°C° 0 mm 1 m/S 760 mmHg 92%
    05:00 +19°C° 0 mm 1 m/S 760 mmHg 87%
    06:00 +20°C° 0 mm 1 m/S 760 mmHg 83%
    07:00 +21°C° 0 mm 1 m/S 760 mmHg 78%
    08:00 +23°C° 0 mm 1 m/S 760 mmHg 71%
    09:00 +25°C° 0 mm 1 m/S 760 mmHg 64%
    10:00 +27°C° 0 mm 1 m/S 760 mmHg 57%
    11:00 +28°C° 0 mm 1 m/S 759 mmHg 53%
    12:00 +29°C° 0 mm 1 m/S 759 mmHg 50%
    13:00 +30°C° 0 mm 1 m/S 758 mmHg 46%
    14:00 +30°C° 0 mm 1 m/S 758 mmHg 46%
    15:00 +30°C° 0 mm 1 m/S 758 mmHg 46%
    16:00 +30°C° 0 mm 1 m/S 758 mmHg 46%
    17:00 +29°C° 0 mm 1 m/S 758 mmHg 50%
    18:00 +28°C° 0 mm 1 m/S 758 mmHg 54%
    19:00 +27°C° 0 mm 1 m/S 758 mmHg 58%
    20:00 +26°C° 0 mm 1 m/S 758 mmHg 60%
    21:00 +25°C° 0 mm 1 m/S 758 mmHg 62%
    22:00 +24°C° 0 mm 1 m/S 759 mmHg 64%
    23:00 +24°C° 0 mm 1 m/S 759 mmHg 66%

    25 Juli, Mittwoch

    Zeit Temperatur Niederschläge Wind Luftdruck Luftfeuchtigkeit
    00:00 +23°C° 0 mm 1 m/S 759 mmHg 69%
    01:00 +22°C° 0 mm 1 m/S 759 mmHg 71%
    02:00 +22°C° 0,1 mm 1 m/S 759 mmHg 72%
    03:00 +22°C° 0,1 mm 1 m/S 759 mmHg 73%
    04:00 +22°C° 0,1 mm 1 m/S 759 mmHg 74%
    05:00 +23°C° 0,1 mm 1 m/S 759 mmHg 74%
    06:00 +23°C° 0,1 mm 1 m/S 759 mmHg 73%
    07:00 +24°C° 0,1 mm 1 m/S 759 mmHg 73%
    08:00 +26°C° 0,2 mm 1 m/S 759 mmHg 67%
    09:00 +27°C° 0,2 mm 1 m/S 759 mmHg 61%
    10:00 +29°C° 0,2 mm 1 m/S 759 mmHg 55%
    11:00 +30°C° 0,2 mm 1 m/S 759 mmHg 52%
    12:00 +30°C° 0,2 mm 1 m/S 759 mmHg 49%
    13:00 +31°C° 0,2 mm 1 m/S 759 mmHg 45%
    14:00 +31°C° 0 mm 1 m/S 759 mmHg 46%
    15:00 +31°C° 0 mm 1 m/S 759 mmHg 46%
    16:00 +31°C° 0 mm 2 m/S 759 mmHg 46%
    17:00 +30°C° 0 mm 2 m/S 759 mmHg 51%
    18:00 +29°C° 0 mm 2 m/S 759 mmHg 55%
    19:00 +28°C° 0 mm 2 m/S 759 mmHg 60%
    20:00 +26°C° 0 mm 2 m/S 759 mmHg 66%
    21:00 +24°C° 0 mm 2 m/S 760 mmHg 71%
    22:00 +21°C° 0 mm 2 m/S 760 mmHg 77%
    23:00 +21°C° 0,2 mm 2 m/S 760 mmHg 80%
    Mehr zeigen